Location: Ipswich
(52.0579°N, 1.1528°E)
Time: 21:54:54
(UTC+01:00)

ISS - Pass Details

Date: 15 May 2026
Orbit: 414 x 424 km, 51.6° (Epoch: 15 May)

Event Time Altitude Azimuth Distance (km) Brightness Sun altitude
Rises 22:19:46 0° 273° (W) 2,353 0.7 -11.6°
Reaches altitude 10° 22:21:51 10° 272° (W) 1,490 -0.4 -11.8°
Maximum altitude 22:25:12 83° 186° (S) 424 -3.9 -12.1°
Enters shadow 22:28:15 12° 98° (E) 1,370 -1.5 -12.3°
